Back to catalog

STARLINK-37988

AliveCommunicationsSSO
NORAD 69748·PAYLOAD·🇺🇸 United States

Launched Jul 2, 2026 from Vandenberg Space Force Base

Loading…

Next Passes (next 24 hours)

TLE

FreshSource: CelesTrak SupGP

Epoch: Sep 14, 2026, 15:17 UTC

1 69748C 26150K   26257.63729167 -.00068018  00000+0 -21122-2 0  2572
2 69748  97.2845  96.6389 0001761  85.4948  36.4950 15.33462361    17

Track STARLINK-37988 in real time with AllMySat

Download on the App Store